Regional Weather Roundup
Issued by NWS

Home | Current Version | Previous Version | Text Only | Print | Product List | Glossary Off
Versions: 1 2 3 4 5 6 7 8 9 10 11 12 13 14 15 16 17 18 19 20 21 22 23 24 25 26 27 28 29 30 31 32 33 34 35 36 37 38 39 40 41 42 43 44 45 46 47 48 49 50

000
ASUS43 KMKX 292204
RWRWI

WISCONSIN REGIONAL WEATHER ROUNDUP
NATIONAL WEATHER SERVICE MILWAUKEE/SULLIVAN WI
500 PM CDT FRI MAY 29 2015

NOTE: "FAIR" INDICATES FEW OR NO CLOUDS BELOW 12,000 FEET WITH NO
SIGNIFICANT WEATHER AND/OR OBSTRUCTIONS TO VISIBILITY.

WIZ001-002-006>008-014>016-023>028-292300-
NORTHWEST WISCONSIN

CITY           SKY/WX    TMP DP  RH WIND       PRES   REMARKS
SUPERIOR ARPT  CLOUDY    59  54  83 N12       29.96R
ASHLAND        LGT RAIN  62  58  86 N10       29.93R
HAYWARD        LGT RAIN  63  60  90 N7        29.92R FOG
SIREN          LGT RAIN  64  62  94 N10       29.93S
CUMBERLAND     LGT RAIN  63  61  94 N6        29.92S
RICE LAKE      RAIN      64  61  91 N5        29.92S
CHETEK         HVY RAIN  64  63  97 N6        29.91R
LADYSMITH      HVY RAIN  67  65  93 N7        29.92R
EAU CLAIRE     NOT AVBL
MENOMONIE      RAIN      67  65  93 S5        29.90S
NEW RICHMOND   CLOUDY    65  63  94 N5        29.92S
OSCEOLA        RAIN      64  64 100 N3        29.94F
$$

WIZ003>005-009-010-017-018-292300-
NORTH CENTRAL WISCONSIN

CITY           SKY/WX    TMP DP  RH WIND       PRES   REMARKS
MANITOWISH WTR HVY RAIN  62  61  95 N5G17     29.91R
ARBOR VITAE    CLOUDY    69  64  83 W5        29.90R
WOODRUFF       CLOUDY    69  64  83 W5        29.90R
RHINELANDER    CLOUDY    68  62  81 NW3       29.90S
EAGLE RIVER    CLOUDY    68  60  74 W9        29.89S
LAND O LAKES   CLOUDY    70  60  70 NW6       29.90S
PHILLIPS       RAIN      66  61  84 NW9       29.90R
TOMAHAWK       CLOUDY    68  63  83 W6        29.90S
MEDFORD        LGT RAIN  69  64  86 W3        29.89F
MERRILL        LGT RAIN  71  64  79 W6        29.88S
$$

WIZ029-030-035-036-043>047-292300-
CENTRAL WISCONSIN

CITY           SKY/WX    TMP DP  RH WIND       PRES   REMARKS
WAUSAU         CLOUDY    70  64  81 NW15G21   29.86R THUNDER
MOSINEE        PTSUNNY   73  64  73 SW7       29.87F
MARSHFIELD     TSTM      70  63  78 W12       29.88R
STEVENS POINT  CLOUDY    76  60  57 S12       29.86F
WAUPACA        PTSUNNY   81  65  57 S7        29.86F HX  83
WAUTOMA        NOT AVBL
WISC RAPIDS    PTSUNNY   73  63  70 NW5       29.87F
CAMP DOUGLAS   NOT AVBL
$$

WIZ011>013-019>022-031-037>040-048>050-292300-
NORTHEAST WISCONSIN

CITY           SKY/WX    TMP DP  RH WIND       PRES   REMARKS
ANTIGO         LGT RAIN  71  64  78 W6        29.88F
SHAWANO        MOSUNNY   79  62  55 S6        29.86F HX  81
OCONTO         PTSUNNY   75  66  73 S10       29.86F
STURGEON BAY   CLOUDY    73  64  73 S17       29.90F
GREEN BAY      PTSUNNY   75  66  73 S12       29.87F
MANITOWOC      NOT AVBL
APPLETON       PTSUNNY   75  63  64 S12       29.88F
CLINTONVILLE   MOSUNNY   79  63  57 SW8       29.86F HX  80
OSHKOSH        MOSUNNY   76  68  76 S10       29.87F
$$

WIZ032>034-041-042-053>061-292300-
SOUTHWEST WISCONSIN

CITY           SKY/WX    TMP DP  RH WIND       PRES   REMARKS
LA CROSSE      TSTM      70  65  84 N10       29.85F VSB 1
SPARTA         PTSUNNY   78  60  54 W5        29.87S
VIROQUA        CLOUDY    76  62  62 SW10      29.89S
BOSCOBEL       MOSUNNY   81  63  54 SW5       29.86F HX  82
PRAIRIE DU CHI PTSUNNY   79  61  53 SW6       29.86S HX  80
PLATTEVILLE    PTSUNNY   74  68  80 S8        29.90F
$$

WIZ056-057-062-063-064-067-068-292300-
SOUTH CENTRAL WISCONSIN

CITY           SKY/WX    TMP DP  RH WIND       PRES   REMARKS
REEDSBURG      PTSUNNY   78  65  64 W12       29.87S HX  80
BARABOO/DELLS  LGT RAIN  76  66  69 SW8       29.88S
LONE ROCK      NOT AVBL
MINERAL POINT  PTSUNNY   73  68  83 SW8       29.91S
MADISON        PTSUNNY   76  65  68 VRB5      29.88R
MIDDLETON      PTSUNNY   76  65  67 SW7       29.89F
WATERTOWN      MOSUNNY  N/A N/A N/A SW9G17    29.88F
MONROE         PTSUNNY   77  64  65 SW14      29.90S
JANESVILLE     NOT AVBL
$$

WIZ051-052-058>065-066-070>072-292300-
SOUTHEAST WISCONSIN

CITY           SKY/WX    TMP DP  RH WIND       PRES   REMARKS
MILWAUKEE      CLOUDY    73  67  81 S9        29.89F
WAUKESHA       PTSUNNY   72  66  83 SW8       29.91F
MILWAUKEE/TIMM LGT RAIN  70  66  88 CALM      29.90F
RACINE         LGT RAIN  69  65  86 SE7       29.91F FOG
BURLINGTON     PTSUNNY   73  67  81 S3        29.90F
KENOSHA        LGT RAIN  74  67  78 CALM      29.90F
FOND DU LAC    PTSUNNY   78  65  63 S12       29.87F HX  80
SHEBOYGAN      LGT RAIN  70  66  87 S12       29.90F FOG
WEST BEND      CLOUDY    70  66  88 E5        29.90F
JUNEAU         MOSUNNY   77  65  68 S13       29.89F
$$

LSZ147-162-292300-
LAKE SUPERIOR

STATION/POSITION TIME  TEMP    WIND        PRES    WAVE
                       AIR SEA DIR/SP/G            HT/PER
                 (UTC) (F)     (DEG/KT/KT) (MB)    (FT/S)
W MID LAKE BUOY  2050   40 37  280/ 10/ 12   N/A     1
DEVILS ISLAND    2100   55     320/ 15/ 18   N/A
PORT WING        2140   53     260/  2/  6   N/A
SAXON HARBOR     2100   60        CALM       N/A
$$

LMZ867-665-643>646-292300-
LAKE MICHIGAN

STATION/POSITION TIME  TEMP    WIND        PRES    WAVE
                       AIR SEA DIR/SP/G            HT/PER
                 (UTC) (F)     (DEG/KT/KT) (MB)    (FT/S)
CHAMBERS ISLAND  2100   71     140/  5/ 12   N/A
N MID LAKE BUOY  2050   43 37  180/ 12/ 14   N/A     1/ 4
NORTHPORT PIER   2100   57     150/  7/ 10   N/A
SISTER BAY       2118   68     190/ 17/ 20   N/A
ALGOMA LAKESHORE 2108          210/ 10/ 13   N/A
KEWAUNEE LAKESHO 2000                        N/A
SHEBOYGAN LAKESH 2100   63     170/  9/ 10   N/A
PORT WASHINGTON  2100   61     190/  4/  9   N/A
ATWATER BUOY     2100   58     160/ 12/ 17   N/A
MILWAUKEE LAKESH 2100   58     150/ 15/ 16   N/A
S MID LAKE BUOY  2050   48 38  140/ 10/ 10   N/A     0
KENOSHA   LAKESH 2100   63     200/  7/ 11   N/A
$$

TC  - TEMPERATURE IN CELSIUS
VSB - VISIBILITY IN STATUTE MILES
WCI - WIND CHILL INDEX
HX  - HEAT INDEX



USA.gov is the U.S. government's official web portal to all federal, state and local government web resources and services.